Regional Weather Roundup
Issued by NWS Wakefield, VA

Home | Current Version | Previous Version | Text Only | Print | Product List | Glossary On
Versions: 1 2 3 4 5 6 7 8 9 10 11 12 13 14 15 16 17 18 19 20 21 22 23 24 25 26 27 28 29 30 31 32 33 34 35 36 37 38 39 40 41 42 43 44 45 46 47 48 49 50
000
ASUS41 KAKQ 020415
RWRAKQ

REGIONAL WEATHER ROUNDUP
NATIONAL WEATHER SERVICE WAKEFIELD VA
1200 AM EDT THU JUL 02 2015

Note: "fair" indicates few or no clouds below 12,000 feet with no
significant weather and/or obstructions to visibility. * = Denotes
station may not report precipitation (e.g., rain,snow,etc.),
thunder or fog.

VAZ042-051-052>054-056-020500-
NORTHERN VIRGINIA

CITY           SKY/WX    TMP DP  RH WIND       PRES   REMARKS
WASH NATIONAL  MOCLDY    74  70  87 S3        29.91S
DULLES         PTCLDY    69  63  81 CALM      29.91S
FORT BELVOIR   PTCLDY    71  69  92 CALM      29.91S
QUANTICO       PTCLDY    74  70  87 NW3       29.91S
FREDERICKSBRG* CLEAR     77  70  80 CALM      29.89S
STAFFORD*      CLEAR     73  65  76 CALM      29.95S
WARRENTON      PTCLDY    69  68  96 CALM      29.91S
CULPEPER*      MOCLDY    68  66  94 CALM      29.93S
MANASSAS*      CLOUDY    72  68  88 NE5       29.92R
LEESBURG*      PTCLDY    68  66  94 CALM      29.93S
WINCHESTER     PTCLDY    68  61  77 CALM      29.94S
FRONT ROYAL*   FAIR      64  63  94 CALM      29.93S
LURAY*         MOCLDY    70  64  83 CALM      29.95R
$$

VAZ048-049-060>072-079>083-020500-
CENTRAL AND SOUTH CENTRAL VIRGINIA

CITY           SKY/WX    TMP DP  RH WIND       PRES   REMARKS
RICHMOND       CLOUDY    76  69  79 S5        29.91F
CHESTERFIELD*  NOT AVBL
PETERSBURG*    CLOUDY    74  74 100 CALM      29.92S
HANOVER        PTCLDY    72  70  93 CALM      29.92S
TAPPAHANNOCK*  PTCLDY    73  67  82 CALM      29.91S
QUINTON*       NOT AVBL
CHARLOTTSVILLE CLOUDY    72  66  81 N5        29.91F
GORDONSVILLE*  CLOUDY    70  70 100 CALM      29.91S
ORANGE*        MOCLDY    72  70  94 CALM      29.93S
LOUISA*        PTCLDY    68  66  94 CALM      29.90F FOG
BUMPASS*       FAIR      71  69  90 SE5       29.90F
FARMVILLE*     MOCLDY    77  68  75 SW5       29.90S
CREWE*         FAIR      73  69  89 CALM      29.92R
FORT PICKETT*  FAIR      73  70  90 S12       29.92S
CHASE CITY*    FAIR      80  74  81 CALM      29.93S
CLARKSVILLE*   FAIR      77  70  78 S6        29.92F
SOUTH HILL*    CLOUDY    74  72  91 S7        29.99S
LAWRENCEVILLE* NOT AVBL
EMPORIA*         N/A     73  70  88 CALM      29.94S
$$

VAZ088>098-020500-
SOUTHEAST VIRGINIA

CITY           SKY/WX    TMP DP  RH WIND       PRES   REMARKS
NORFOLK        MOCLDY    78  67  68 S6        29.91F
VIRGINIA BEACH MOCLDY    79  68  69 SW7       29.91F
NORFOLK NAVAL  MOCLDY    77  68  73 S6        29.93S
WEST POINT*    NOT AVBL
SALUDA*        FAIR      75  70  83 S3        29.90F
NEWPORT NEWS   MOCLDY    77  70  79 SW8       29.91F
LANGLEY AFB    MOCLDY    77  70  78 S6        29.90S
FORT EUSTIS    MOCLDY    78  73  84 S5        29.89F
WILLIAMSBURG*  MOCLDY    81  72  74 SW6       29.92F
HR EXEC AP*    FAIR      72  68  88 SW7       29.94S
FRANKLIN*      PTCLDY    76  70  82 SW8       29.93S
WAKEFIELD      MOCLDY    76  71  85 CALM      29.92F
$$

VAZ020-022-025-037-045-020500-
WEST CENTRAL AND SOUTHWEST VIRGINIA

CITY           SKY/WX    TMP DP  RH WIND       PRES   REMARKS
STAUNTON*      CLOUDY    74  63  69 NE3       29.97R
WAYNESBORO*    FAIR      68  64  87 CALM      29.96S
HOT SPRINGS VA CLOUDY    65  63  94 W7        30.05F
LYNCHBURG      MOCLDY    72  67  84 W3        29.94S
DANVILLE       CLOUDY    72  69  90 SW5       29.94S
SOUTH BOSTON*  FAIR      76  68  76 MISG      29.93S
MARTINSVILLE   CLOUDY    71  71 100 CALM      29.98S
ROANOKE        CLOUDY    74  66  76 W7        29.97S
BLACKSBURG     CLOUDY    69  66  89 CALM      30.05R
DUBLIN*        CLOUDY    69  66  90 SW5       30.03S
MARION*        DRIZZLE   66  64  94 SW5       30.08S
HILLSVILLE*    DRIZZLE   65  63  92 W5        30.04S
RICHLANDS*     CLOUDY    66  64  94 SW7       30.05S
WISE*          CLOUDY    64  64 100 SW9       30.05S
ABINGDON*      CLOUDY    68  68  99 SW3       30.05R FOG
$$

MDZ021>025-VAZ099-100-020500-
SOUTHERN MARYLAND AND THE DELMARVA PENINSULA

CITY           SKY/WX    TMP DP  RH WIND       PRES   REMARKS
PATUXENT RIVER PTCLDY    75  69  81 NW6       29.90R
BAY BRIDGE APT   N/A     73  70  88 CALM      29.91R
LEONARDTOWN    PTCLDY    73  68  83 CALM      29.92R
DOVER          MOCLDY    75  70  84 SW7       29.88F
GEORGETOWN     PTCLDY    76  67  73 W3        29.91R
EASTON         LGT RAIN  72  72 100 NW7       29.95R
CAMBRIDGE      PTCLDY    73  68  83 E3        29.90S
SALISBURY      CLEAR     73  69  87 SW3       29.90S
OCEAN CITY     CLEAR     76  69  79 SW6       29.90F
WALLOPS ISLAND PTCLDY    75  71  87 SW6       29.91F
ACCOMACK*      PTCLDY    72  70  94 S3        29.90F
$$

NCZ012>017-030>032-020500-
NORTH CENTRAL AND EASTERN NORTH CAROLINA

CITY           SKY/WX    TMP DP  RH WIND       PRES   REMARKS
ROANOKE RAPIDS NOT AVBL
RALEIGH        CLOUDY    76  68  76 SW7       29.95F
ELIZABETH CITY CLEAR     76  72  87 SW9       29.94R
AHOSKIE*       CLOUDY    74  70  86 S5        29.94F
EDENTON*       CLEAR     78  72  80 W9        29.95R
CURRITUCK*     CLEAR     77  69  76 SW3       29.94S
KILL DEVIL HLS CLEAR     78  73  83 SW7       29.93S
MANTEO         CLEAR     79  74  85 SW10      29.95S
CAPE HATTERAS  MOCLDY    79  75  87 SW12G20   29.96F
TARBORO*         N/A     77  71  80 S3        29.95F
GOLDSBORO      PTCLDY    75  72  90 S3        29.94F
WASHINGTON     PTCLDY    76  71  85 SW5       29.96S
GREENVILLE     MOCLDY    77  72  83 SW5       29.97F
NEW BERN       PTCLDY    75  71  87 SW5       29.98S
WILMINGTON     PTCLDY    79  71  76 SW9       29.99S
$$

VAZ048-020500-
ELSEWHERE

CITY           SKY/WX    TMP DP  RH WIND       PRES   REMARKS
HARRISBURG PA  PTCLDY    69  61  75 CALM      29.90S
BALTIMORE      PTCLDY    70  65  84 CALM      29.90S
ANNAPOLIS      CLOUDY    74  69  85 CALM      29.90S
ANDREWS AFB    MOCLDY    70  69  99 SE2       29.91R
PHILADELPHIA   MOCLDY    78  58  49 W7        29.90R
GREENSBORO     CLOUDY    73  67  81 SW6       29.96F
ROCKY MOUNT    CLOUDY    78  72  81 S7        29.94F
$$

VAZ100-020500-
MARINE

STATION/POSITION TIME  TEMP    WIND        PRES    WAVE   SWELL
                       AIR SEA DIR/SP/G            HT/PER HT/PER
                 (UTC) (F)     (DEG/KT/KT) (MB)    (FT/S) (FT/S)
BRANDYWINE LGT   0300   77 71  250/  9/ 10 1012.4R
CAPE MAY NJ      0300   77 78  200/  5/  8 1011.8S
LEWES DE         0300   78 73  240/  3/  3 1012.2R
15NM E FENWICK I 0350   74 73              1012.2F   4/ 8
OCEAN-CITY-INLET 0300   74 71  240/  4/  4 1012.4R
WACHAPREAGUE VA  0300   78 81  240/  2/  4 1013.1R
THOMAS POINT MD  0300   75 77  340/  7/  7 1012.5F
GOOSES REEF MD   0400   74 78   10/ 10/ 12 1013.8R
COVE POINT MD    0300   77      30/  6/ 11 1013.1R
SOLOMONS ISLAND  0300      80                N/A
BISHOPS HEAD MD  0300   81     230/ 13/ 16 1012.0R
PINEY POINT MD   0300          240/ 12/ 13   N/A
CAMBRIDGE MD     0300   76 79  330/  3/  4 1012.5R
LEWISETTA VA     0300   78 81  230/ 10/ 12 1012.2R
RAPPAHANNOCK LGT 0300          220/ 11/ 13 1013.3R
STINGRAY PT      0400   80 81  230/ 10/ 12 1012.4F
YORK RVR RNG VA  0300   80     230/  9/ 11 1012.4R
YORKTOWN VA      0300   78 81  220/  5/  6 1012.7R
JAMESTOWN VA     0400   78 83  220/  8/ 12   N/A
DOMINION TERM VA 0300   80     190/  5/  6 1013.1R
KIPTOPEKE VA     0300      85  190/  7/  8   N/A
CHES BAY BRIDGE  0300   80 73  170/  5/  6 1012.8R
CAPE HENRY VA    0300   79     180/  4/  5 1011.6R
CHESAPEAKE LGHT  0300   80     210/ 11/ 11 1013.9R
WILLOUBY STN VA  0300   81     230/  9/ 11 1013.9R
CAPE HENRY BUOY  0328      78                N/A     3/ 9
1ST LANDING BUOY 0400      77              1012.7F   1/ 5
CAPE CHARLES BUO 0326      78                N/A     2/ 8   2/ 8
OFFSHORE WE BUOY 0311      78                N/A     4/ 8   3/ 8
64NM E OF VA BCH 0350   78 77  210/ 10/ 12 1013.2F   5/ 8   5/ 8
DUCK PIER NC     0300   81 62  220/  7/  9 1012.9R
44100 DUCK FRF   0324      77                N/A     3/ 8
44056 DUCK FRF   0311      71                N/A     2/ 8
OREGON INLET NC  0300   79 83  230/ 12/ 14 1014.2R
HATTERAS NC      0300   77 81  220/  8/ 12 1014.4S
DIAMOND SHLS NC  0350   80 83  240/ 17/ 21 1014.4F   5/ 8   2/ 8
CAPE LOOKOUT NC  0400   79     230/ 11/ 14 1015.0R
$$


USA.gov is the U.S. government's official web portal to all federal, state and local government web resources and services.